www.pogodaiklimat.ru

Погода и климат >> Архив погоды >> Россия >> Ленинградская область >> Рощино


ПОГОДА в Рощино

  • Прогноз погоды в Рощино
  • Монитор погоды в Рощино

АРХИВ ПОГОДЫ в Рощино

Время (UTC), дата Ветер
(напр.,м/с)
 
Видим.   Явления Облачность Т
(С)
Тd
(С)
f
(%)
Тe
(С)
Тes
(С)
Комфортность P
(гПа)
Po
(гПа)
Тmin
(С)
Tmax
(С)
R
(мм)
R24
(мм)
S
(см)
00 17.01 штиль 0 н/о н/о -8.0 -8.8 94 -9 -9 993.1 980.9
03 17.01 штиль 0 н/о н/о -7.0 -7.6 95 -8 -8 989.6 977.5 -8.1 0.2
06 17.01 штиль 0 н/о н/о -5.9 -6.5 96 -7 -7 984.0 972.0 -8.1 11
09 17.01 штиль 0 н/о н/о -5.4 -6.0 96 -7 -7 980.6 968.6
12 17.01 штиль 0
{10}
н/о н/о -3.9 -4.4 96 -5 -5 977.7 965.8
15 17.01 штиль 0 н/о н/о -3.8 -4.3 96 -5 -5 976.7 964.9 27
18 17.01 штиль 0 н/о н/о -5.2 -5.7 96 -6 -6 979.3 967.4 -3.7 17
21 17.01 штиль 0 н/о н/о -5.5 -6.1 96 -7 -7 982.8 970.8
00 18.01 штиль 0 н/о н/о -9.3 -10.3 92 -10 -10 986.9 974.7
03 18.01 штиль 0 н/о н/о -12.1 -13.4 90 -12 -12 990.6 978.2 -12.3 2
06 18.01 штиль 0 н/о н/о -13.7 -15.0 90 -14 -14 992.7 980.2 -13.8 1
09 18.01 штиль 0 н/о н/о -12.6 -13.9 90 -13 -13 994.5 982.0
12 18.01 штиль 0 н/о н/о -12.2 -13.5 90 -12 -12 995.8 983.3
15 18.01 штиль 0 н/о н/о -16.3 -17.9 87 -16 -16 997.2 984.5
18 18.01 штиль 0
{10}
н/о н/о -14.2 -15.7 88 -14 -14 998.1 985.5 -11.2
00 19.01 штиль 0 н/о н/о -16.2 -17.9 87 -16 -16 1001.0 988.3
03 19.01 штиль 0 н/о н/о -17.5 -19.4 85 -18 -18 1002.6 989.8 -17.9
06 19.01 штиль 0 н/о н/о -19.2 -21.3 83 -19 -19 1004.1 991.2 -19.3
09 19.01 штиль 0 н/о н/о -17.7 -19.6 85 -18 -18 1005.7 992.8
12 19.01 штиль 0 н/о н/о -9.7 -10.7 92 -10 -10 1005.2 992.7
15 19.01 штиль 0 н/о н/о -11.8 -13.0 91 -12 -12 1005.0 992.4
18 19.01 штиль 0 н/о н/о -9.0 -9.9 93 -10 -10 1004.1 991.7 -8.7
21 19.01 штиль 0 н/о н/о -7.8 -8.6 94 -9 -9 1001.9 989.6
00 20.01 штиль 0 н/о н/о -5.9 -6.5 96 -7 -7 997.9 985.7
03 20.01 штиль 0 н/о н/о -5.5 -6.1 96 -7 -7 996.3 984.1 -11.8 8
06 20.01 штиль 0 н/о н/о -7.1 -7.7 95 -8 -8 995.8 983.6 -9.0 8
09 20.01 штиль 0 н/о н/о -6.3 -6.9 95 -7 -7 998.2 986.0
12 20.01 штиль 0 н/о н/о -11.0 -12.2 91 -11 -11 1002.2 989.7
15 20.01 штиль 0 н/о н/о -14.4 -15.9 88 -14 -14 1004.9 992.2 0.5
18 20.01 штиль 0 н/о н/о -15.3 -16.9 88 -15 -15 1005.7 993.0 -5.6 0.4
21 20.01 штиль 0 н/о н/о -16.7 -18.4 87 -17 -17 1007.3 994.5
00 21.01 штиль 0 н/о н/о -17.9 -19.7 86 -18 -18 1008.0 995.1
03 21.01 штиль 0 н/о н/о -20.1 -22.4 82 -20 -20 1009.2 996.2 -20.2
06 21.01 штиль 0 н/о н/о -21.0 -23.3 82 -21 -21 1010.6 997.5 -21.1
09 21.01 штиль 0 н/о н/о -21.0 -23.3 82 -21 -21 1012.5 999.4
12 21.01 штиль 0 н/о н/о -19.6 -21.8 83 -20 -20 1013.2 1000.1
15 21.01 штиль 0 н/о н/о -19.7 -21.9 83 -20 -20 1014.3 1001.2
18 21.01 штиль 0 н/о н/о -18.9 -21.0 83 -19 -19 1015.1 1002.1 -18.9
21 21.01 штиль 0 н/о н/о -19.1 -21.3 83 -19 -19 1016.2 1003.1
00 22.01 штиль 0 н/о н/о -19.5 -21.7 83 -20 -20 1016.7 1003.6
03 22.01 штиль 0 н/о н/о -21.1 -23.5 81 -21 -21 1016.7 1003.5 -21.1
06 22.01 штиль 0 н/о н/о -19.0 -21.0 84 -19 -19 1015.9 1002.8 -21.4
09 22.01 штиль 0
{10}
н/о н/о -13.8 -15.3 88 -14 -14 1015.8 1003.0
12 22.01 штиль 0 н/о н/о -11.4 -12.6 91 -12 -12 1015.3 1002.6
15 22.01 штиль 0 н/о н/о -14.4 -16.0 88 -14 -14 1015.2 1002.4
18 22.01 штиль 0 н/о н/о -15.5 -17.2 87 -16 -16 1015.1 1002.2 -10.9
21 22.01 штиль 0 н/о н/о -15.0 -16.6 88 -15 -15 1015.1 1002.2
00 23.01 штиль 0 н/о н/о -14.3 -15.9 88 -14 -14 1014.7 1001.9
03 23.01 штиль 0 н/о н/о -18.6 -20.7 83 -19 -19 1014.0 1001.0 -18.7
06 23.01 штиль 0 н/о н/о -17.7 -19.6 85 -18 -18 1013.1 1000.1 -18.8
09 23.01 штиль 0 н/о н/о -14.8 -16.4 88 -15 -15 1012.5 999.7
12 23.01 штиль 0 н/о н/о -11.2 -12.4 91 -11 -11 1011.3 998.7
15 23.01 штиль 0 н/о н/о -11.6 -12.8 91 -12 -12 1010.8 998.2 0.1
18 23.01 штиль 0 н/о н/о -10.3 -11.3 92 -11 -11 1009.9 997.3 -10.3 0.7

 

Местоположение метеостанции Рощино (Ленинградская область, Россия): широта 60.25 долгота 29.63 высота над уровнем моря 97 м.

В архиве по умолчанию представлена погода в Рощино за последнюю неделю. Архивные данные за месяц целиком и за предыдущие месяцы, начиная с января 2011 года, Вы можете получить, выбрав интересующий диапазон дат из раскрывающегося списка и нажав кнопку "Ввод!".


*Определитесь, кто Вы:
робот инопланетянин человек

Внимание! Время в таблицах - всемирное. Для получения местного времени необходимо прибавить поправку, которая равна 3 ч.

Смотрите также архив погоды в соседних городах и на ближайших метеорологических станциях:

Погода в Кронштадте (город Санкт-Петербург, Россия) (31 км)
Погода в Лисьем Носу (город Санкт-Петербург, Россия) (32 км)
Погода в Озерках (Ленинградская область, Россия) (35 км)
Погода в Ломоносове (город Санкт-Петербург, Россия) (38 км)
Погода в Санкт-Петербурге (город Санкт-Петербург, Россия) (48 км)
Погода в Шепелево (Ленинградская область, Россия) (49 км)
Погода в Сосново (Ленинградская область, Россия) (51 км)
Погода в Сосновом Бору (Ленинградская область, Россия) (54 км)
Погода в Воейково (город Санкт-Петербург, Россия) (68 км)
Погода в Выборге (Ленинградская область, Россия) (72 км)

Пояснения к столбцам:

Ветер - указаны скорость ветра в м/с - средняя за 10 мин, порывы в срок и между сроками (в фигурных скобках) и направление, откуда дует ветер: С - северный, СВ - северо-восточный, В - восточный, ЮВ - юго-восточный, Ю - южный, ЮЗ - юго-западный, З - западный, СЗ - северо-западный.
Видимость - горизонтальная дальность видимости в метрах или километрах. При видимости от 1 до 10 км при отсутствии осадков обычно наблюдается дымка, при ухудшении видимости до 1 км и менее - туман. В сухую погоду видимость может ухудшаться дымом, пылью или мглою.
Явления - указаны атмосферные явления, наблюдавшиеся в срок или в последний час перед сроком; фигурными скобками обозначены явления, наблюдавшиеся между сроками (за 1-3 часа до срока); квадратными скобками обозначены град или гололедные отложения с указанием их диаметра в мм.
Облачность - указаны через наклонную черту общая и нижняя облачность в баллах и высота нижней границы облаков в метрах; квадратными скобками обозначены формы облаков: Ci - перистые, Cs - перисто-слоистые, Cc - перисто-кучевые, Ac - высококучевые, As - высокослоистые, Sc - слоисто-кучевые, Ns - слоисто-дождевые, Cu - кучевые, Cb - кучево-дождевые. Подробнее классификацию облаков см. в Атласе облаков (PDF).
T - Температура воздуха - температура, измеренная на высоте 2 м над землей.
Td - Температура точки росы - температура, при понижении до которой содержащийся в воздухе водяной пар достигнет насыщения.
f - Относительная влажность воздуха - влажноcть воздуха, измеренная на высоте 2 м над землей.
Te - Эффективная температура - температура, которую ощущает одетый по сезону человек в тени. Характеристика душности погоды. При расчете учитывается влияние влажности воздуха и скорости ветра на теплоощущения человека.
Tes - Эффективная температура на солнце - температура, которую ощущает человек, с поправкой на солнечный нагрев. Характеристика знойности погоды. Зависит от высоты солнца над горизонтом, облачности и скорости ветра. Ночью, в пасмурную погоду, а также при ветре 12 м/с и более поправка равна нулю.
P - Атмосферное давление - приведенное к уровню моря атмосферное давление.
Po - Атмосферное давление - измеренное на уровне метеостанции атмосферное давление.
Tmin - Минимальная температура - минимум температуры воздуха на высоте 2 м над землей.
Tmax - Максимальная температура - максимум температуры воздуха на высоте 2 м над землей.
R - Количество осадков - Количество выпавших осадков за период времени, мм. При наведении курсора мыши на число - период времени, за который выпало указанное количество осадков.
R24 - Количество осадков - Количество выпавших осадков за 24 часа, мм.
S - Снежный покров - Высота снежного покрова, см. При наведении курсора мыши на число - состояние снежного покрова и степень покрытия местности в баллах.